Total_Precipitation_Accumulation
0.40 0.32 0.49 0.50 0.47 0.58 0.84 0.80 0.72 0.34 0.19 0.14 0.15 0.20 0.19 0.16 0.14 0.15 0.16 0.16 0.16 0.17 0.18 0.14 0.11 0.09 0.07 0.07 0.09 0.11 0.13 0.15 0.15 0.16 0.17 0.20 0.22 0.25 0.28 0.31 0.36 0.38 0.40 0.40
0.46 0.29 0.40 0.45 0.42 0.44 0.49 0.51 0.50 0.36 0.28 0.19 0.19 0.20 0.18 0.15 0.13 0.13 0.13 0.15 0.16 0.15 0.17 0.14 0.13 0.11 0.10 0.10 0.09 0.11 0.14 0.14 0.15 0.17 0.17 0.18 0.21 0.25 0.25 0.28 0.33 0.37 0.43 0.49
0.53 0.32 0.41 0.46 0.41 0.42 0.42 0.38 0.40 0.42 0.33 0.24 0.24 0.22 0.20 0.16 0.13 0.12 0.10 0.10 0.13 0.14 0.15 0.14 0.12 0.11 0.10 0.10 0.10 0.10 0.13 0.14 0.15 0.17 0.19 0.19 0.22 0.27 0.33 0.38 0.43 0.48 0.52 0.62
0.52 0.38 0.50 0.37 0.29 0.31 0.34 0.33 0.35 0.33 0.25 0.21 0.20 0.21 0.21 0.16 0.13 0.10 0.07 0.06 0.07 0.09 0.10 0.10 0.09 0.09 0.09 0.09 0.10 0.12 0.14 0.18 0.20 0.21 0.28 0.33 0.33 0.36 0.43 0.49 0.53 0.57 0.58 0.62
0.51 0.39 0.27 0.20 0.19 0.22 0.30 0.33 0.29 0.22 0.16 0.14 0.15 0.20 0.21 0.17 0.12 0.09 0.07 0.07 0.07 0.08 0.10 0.09 0.10 0.10 0.10 0.11 0.13 0.14 0.17 0.21 0.24 0.26 0.33 0.42 0.44 0.46 0.50 0.54 0.58 0.58 0.56 0.53
0.47 0.40 0.20 0.12 0.08 0.10 0.19 0.31 0.21 0.19 0.17 0.17 0.18 0.22 0.20 0.16 0.14 0.13 0.12 0.09 0.10 0.10 0.11 0.13 0.16 0.16 0.17 0.18 0.23 0.25 0.26 0.30 0.35 0.40 0.46 0.49 0.50 0.49 0.47 0.46 0.47 0.44 0.39 0.36
0.36 0.33 0.09 0.05 0.04 0.07 0.20 0.25 0.13 0.13 0.14 0.16 0.16 0.15 0.15 0.11 0.11 0.13 0.15 0.14 0.14 0.15 0.17 0.19 0.19 0.20 0.22 0.24 0.32 0.37 0.40 0.41 0.42 0.45 0.48 0.47 0.45 0.42 0.37 0.32 0.29 0.27 0.26 0.24
0.18 0.24 0.12 0.06 0.06 0.10 0.14 0.10 0.11 0.13 0.15 0.15 0.14 0.11 0.11 0.12 0.11 0.10 0.11 0.13 0.15 0.17 0.19 0.22 0.25 0.29 0.30 0.32 0.37 0.40 0.40 0.39 0.38 0.36 0.35 0.36 0.35 0.33 0.28 0.24 0.22 0.20 0.20 0.21
0.10 0.11 0.09 0.08 0.08 0.08 0.07 0.08 0.08 0.10 0.12 0.11 0.11 0.12 0.10 0.08 0.09 0.09 0.10 0.12 0.15 0.19 0.22 0.25 0.26 0.29 0.31 0.31 0.30 0.31 0.32 0.30 0.27 0.24 0.23 0.23 0.23 0.23 0.21 0.19 0.18 0.19 0.20 0.22
0.07 0.05 0.04 0.05 0.05 0.05 0.05 0.04 0.03 0.04 0.06 0.09 0.12 0.12 0.11 0.07 0.07 0.07 0.08 0.09 0.11 0.13 0.15 0.17 0.17 0.19 0.20 0.19 0.19 0.19 0.19 0.19 0.18 0.16 0.16 0.16 0.17 0.19 0.19 0.18 0.17 0.17 0.19 0.22
0.08 0.05 0.05 0.05 0.04 0.04 0.03 0.02 0.02 0.02 0.02 0.04 0.06 0.07 0.08 0.08 0.07 0.07 0.07 0.08 0.08 0.09 0.09 0.10 0.11 0.11 0.11 0.10 0.11 0.12 0.13 0.13 0.14 0.15 0.16 0.17 0.18 0.20 0.23 0.23 0.24 0.23 0.21 0.22
0.09 0.06 0.06 0.05 0.04 0.04 0.03 0.03 0.02 0.03 0.03 0.03 0.04 0.05 0.04 0.04 0.04 0.05 0.07 0.07 0.07 0.08 0.09 0.11 0.11 0.10 0.10 0.08 0.08 0.11 0.13 0.14 0.14 0.15 0.16 0.17 0.19 0.20 0.24 0.25 0.27 0.27 0.27 0.27
0.06 0.04 0.04 0.04 0.03 0.02 0.03 0.03 0.03 0.03 0.03 0.04 0.05 0.05 0.05 0.05 0.06 0.08 0.09 0.10 0.10 0.09 0.09 0.11 0.12 0.12 0.11 0.11 0.11 0.11 0.13 0.15 0.15 0.17 0.18 0.17 0.18 0.20 0.21 0.22 0.24 0.25 0.26 0.28
0.03 0.04 0.04 0.03 0.03 0.02 0.02 0.02 0.03 0.03 0.03 0.04 0.05 0.05 0.05 0.05 0.06 0.09 0.10 0.12 0.12 0.12 0.11 0.11 0.11 0.13 0.13 0.11 0.12 0.13 0.14 0.16 0.17 0.17 0.17 0.17 0.17 0.18 0.19 0.20 0.19 0.19 0.20 0.24
0.02 0.04 0.05 0.04 0.03 0.03 0.03 0.03 0.03 0.03 0.04 0.03 0.03 0.04 0.04 0.06 0.07 0.09 0.10 0.11 0.12 0.12 0.12 0.12 0.12 0.13 0.13 0.13 0.11 0.11 0.13 0.14 0.15 0.16 0.18 0.19 0.19 0.19 0.19 0.20 0.19 0.19 0.20 0.22
0.03 0.03 0.03 0.02 0.02 0.03 0.04 0.04 0.04 0.05 0.05 0.05 0.06 0.07 0.08 0.09 0.09 0.09 0.09 0.10 0.10 0.10 0.09 0.09 0.10 0.11 0.10 0.11 0.11 0.11 0.11 0.15 0.16 0.15 0.15 0.16 0.19 0.20 0.20 0.20 0.21 0.21 0.21 0.22
0.04 0.04 0.05 0.05 0.04 0.04 0.04 0.04 0.04 0.05 0.06 0.06 0.07 0.08 0.08 0.09 0.08 0.08 0.08 0.08 0.08 0.09 0.10 0.10 0.11 0.10 0.09 0.09 0.10 0.10 0.10 0.12 0.16 0.15 0.14 0.15 0.16 0.17 0.19 0.20 0.21 0.21 0.20 0.24
0.05 0.05 0.05 0.06 0.06 0.05 0.05 0.05 0.05 0.05 0.06 0.06 0.06 0.07 0.09 0.09 0.10 0.10 0.10 0.10 0.09 0.09 0.09 0.09 0.09 0.09 0.09 0.10 0.10 0.11 0.11 0.12 0.12 0.13 0.14 0.16 0.18 0.18 0.19 0.19 0.19 0.19 0.19 0.22
0.04 0.04 0.04 0.04 0.05 0.06 0.06 0.07 0.06 0.06 0.06 0.07 0.07 0.08 0.09 0.09 0.09 0.09 0.09 0.10 0.10 0.11 0.11 0.10 0.12 0.10 0.09 0.10 0.12 0.11 0.11 0.13 0.14 0.14 0.16 0.19 0.20 0.18 0.18 0.18 0.18 0.19 0.20 0.20
0.04 0.05 0.07 0.08 0.09 0.09 0.10 0.09 0.09 0.09 0.09 0.08 0.08 0.08 0.08 0.09 0.08 0.08 0.08 0.08 0.09 0.10 0.10 0.12 0.12 0.11 0.10 0.11 0.14 0.11 0.11 0.13 0.15 0.16 0.18 0.19 0.19 0.18 0.18 0.18 0.18 0.19 0.19 0.19
0.07 0.07 0.09 0.11 0.11 0.12 0.11 0.10 0.10 0.09 0.09 0.08 0.08 0.09 0.10 0.10 0.09 0.09 0.09 0.09 0.09 0.09 0.09 0.11 0.10 0.10 0.11 0.13 0.15 0.14 0.13 0.14 0.14 0.16 0.17 0.18 0.19 0.19 0.18 0.18 0.18 0.18 0.18 0.18
0.10 0.10 0.11 0.12 0.14 0.14 0.13 0.10 0.09 0.08 0.08 0.08 0.08 0.08 0.08 0.08 0.09 0.09 0.09 0.10 0.10 0.10 0.08 0.08 0.08 0.10 0.13 0.15 0.13 0.13 0.14 0.15 0.15 0.16 0.17 0.18 0.19 0.19 0.18 0.19 0.20 0.19 0.19 0.19
0.11 0.11 0.11 0.12 0.13 0.14 0.13 0.12 0.11 0.10 0.09 0.09 0.09 0.09 0.09 0.09 0.09 0.09 0.09 0.09 0.08 0.09 0.08 0.06 0.09 0.11 0.13 0.11 0.10 0.11 0.13 0.14 0.15 0.15 0.16 0.16 0.18 0.18 0.19 0.19 0.19 0.18 0.18 0.18
0.12 0.12 0.11 0.11 0.11 0.10 0.10 0.11 0.11 0.11 0.11 0.10 0.11 0.11 0.11 0.11 0.10 0.09 0.08 0.09 0.10 0.10 0.08 0.08 0.10 0.11 0.11 0.10 0.10 0.11 0.12 0.13 0.14 0.15 0.15 0.16 0.17 0.18 0.18 0.18 0.18 0.16 0.16 0.16
0.12 0.11 0.11 0.10 0.10 0.10 0.10 0.10 0.09 0.09 0.09 0.09 0.08 0.08 0.08 0.09 0.10 0.09 0.09 0.09 0.10 0.11 0.10 0.11 0.12 0.12 0.12 0.11 0.12 0.13 0.14 0.14 0.16 0.17 0.17 0.17 0.16 0.17 0.17 0.16 0.17 0.17 0.16 0.15
0.10 0.09 0.09 0.08 0.07 0.08 0.08 0.08 0.08 0.08 0.08 0.08 0.08 0.07 0.07 0.07 0.07 0.08 0.08 0.08 0.09 0.10 0.10 0.11 0.12 0.13 0.13 0.13 0.13 0.14 0.15 0.15 0.16 0.16 0.15 0.15 0.16 0.17 0.16 0.16 0.16 0.16 0.15 0.14
0.08 0.08 0.08 0.07 0.07 0.07 0.07 0.07 0.07 0.08 0.08 0.09 0.09 0.08 0.08 0.08 0.08 0.08 0.07 0.07 0.06 0.07 0.08 0.08 0.09 0.09 0.10 0.12 0.13 0.13 0.14 0.14 0.15 0.15 0.15 0.16 0.16 0.16 0.16 0.15 0.16 0.15 0.15 0.14